QTR908 OTHH-YSSY

Flight info

Callsign QTR908
Flight time N/A
Altitude 39000
Route BUNDU B415 SIXIV N318 TOLDA P570 KITAL L894 BIBGO/N0502F350 DCT SABEK DCT 10S083E 14S086E/N0492F370 19S090E 24S095E 25S096E 2800S10030E 30S104E 32S109E/N0476F390 34S115E DCT NIPON DCT VIMUS DCT COBEL DCT LESON DCT TUTNO Y135 TEDUS J15 AD H247 CULIN Y59 RIVET
Aircraft A359/H-SDE2E3GHIJ3J4J5LM1ORWXY/LB1D1

Departure

Time N/A
Airport Hamad International Airport (OTHH)

Arrival

Time 2026-05-04 10:27
Airport Sydney Kingsford Smith International Airport (YSSY)
Time Latitude Longitude Altitude Speed Heading
2026-05-04 08:54 -34.42240 117.41292 39372 ft 520 kts 102°
2026-05-04 08:55 -34.47845 117.75709 39372 ft 521 kts 102°
2026-05-04 08:55 -34.53337 118.10067 39375 ft 522 kts 102°
2026-05-04 09:01 -35.05494 121.76290 39363 ft 519 kts 101°
2026-05-04 09:01 -35.09857 122.11166 39361 ft 518 kts 101°
2026-05-04 09:02 -35.12170 122.46245 39360 ft 521 kts 91°
2026-05-04 09:02 -35.11710 122.81383 39357 ft 520 kts 91°
2026-05-04 09:03 -35.11189 123.16745 39362 ft 519 kts 91°
2026-05-04 09:03 -35.10567 123.51949 39349 ft 518 kts 90°
2026-05-04 09:04 -35.09845 123.87074 39352 ft 517 kts 90°
2026-05-04 09:04 -35.09022 124.22149 39346 ft 516 kts 90°
2026-05-04 09:05 -35.08100 124.57171 39336 ft 515 kts 90°
2026-05-04 09:05 -35.07086 124.91918 39329 ft 515 kts 90°
2026-05-04 09:06 -35.08023 125.26733 39327 ft 512 kts 95°
2026-05-04 09:08 -35.13225 126.64078 39303 ft 510 kts 94°
2026-05-04 09:08 -35.14291 126.98742 39301 ft 510 kts 94°
2026-05-04 09:09 -35.15257 127.33411 39298 ft 510 kts 94°
2026-05-04 09:09 -35.16125 127.68075 39297 ft 510 kts 93°
2026-05-04 09:10 -35.16884 128.02691 39291 ft 510 kts 92°
2026-05-04 09:10 -35.16083 128.37346 39288 ft 510 kts 90°
2026-05-04 09:11 -35.15295 128.72007 39282 ft 510 kts 90°
2026-05-04 09:11 -35.14407 129.06420 39275 ft 510 kts 89°
2026-05-04 09:12 -35.13412 129.41160 39271 ft 511 kts 89°
2026-05-04 09:14 -35.08437 130.80153 39253 ft 512 kts 89°
2026-05-04 09:14 -35.06947 131.14839 39242 ft 512 kts 89°
2026-05-04 09:15 -35.05371 131.49261 39239 ft 512 kts 89°
2026-05-04 09:15 -35.03051 131.83898 39233 ft 512 kts 87°
2026-05-04 09:17 -34.91347 133.39602 39209 ft 513 kts 85°
2026-05-04 09:18 -34.88489 133.73997 39206 ft 514 kts 85°
2026-05-04 09:18 -34.85507 134.08668 39199 ft 515 kts 84°
2026-05-04 09:19 -34.82416 134.43428 39200 ft 516 kts 84°
2026-05-04 09:19 -34.79218 134.78246 39190 ft 517 kts 84°
2026-05-04 09:20 -34.77958 135.13186 39179 ft 517 kts 95°
2026-05-04 09:20 -34.80160 135.47902 39175 ft 519 kts 95°
2026-05-04 09:21 -34.82228 135.83034 39170 ft 520 kts 95°
2026-05-04 09:21 -34.84195 136.18211 39161 ft 521 kts 94°
2026-05-04 09:22 -34.86069 136.53461 39157 ft 522 kts 94°
2026-05-04 09:22 -34.87844 136.88843 39149 ft 524 kts 94°
2026-05-04 09:23 -34.89519 137.24311 39142 ft 525 kts 93°
2026-05-04 09:23 -34.91097 137.59895 39138 ft 527 kts 93°
2026-05-04 09:25 -34.95794 139.02150 39123 ft 535 kts 91°
2026-05-04 09:26 -34.96462 139.38256 39112 ft 537 kts 91°
2026-05-04 09:26 -34.97027 139.74772 39103 ft 539 kts 91°
2026-05-04 09:27 -34.97486 140.11456 39102 ft 541 kts 90°
2026-05-04 09:27 -34.97841 140.48242 39100 ft 543 kts 90°
2026-05-04 09:28 -34.98070 140.85180 39097 ft 545 kts 90°
2026-05-04 09:28 -34.98196 141.22217 39090 ft 547 kts 89°
2026-05-04 09:29 -34.98215 141.59143 39079 ft 548 kts 89°
2026-05-04 09:29 -34.98104 141.96430 39075 ft 549 kts 88°
2026-05-04 09:30 -34.97886 142.33802 39069 ft 550 kts 87°
2026-05-04 09:30 -34.97687 142.57729 39068 ft 551 kts 87°
2026-05-04 09:31 -34.97596 142.67021 39066 ft 552 kts 87°
2026-05-04 09:31 -34.97498 142.76392 39064 ft 552 kts 86°
2026-05-04 09:32 -34.97392 142.85780 39064 ft 553 kts 86°
2026-05-04 09:34 -34.96897 143.23354 39059 ft 556 kts 86°
2026-05-04 09:34 -34.96775 143.32776 39061 ft 556 kts 86°
2026-05-04 09:35 -34.96665 143.42162 39062 ft 557 kts 86°
2026-05-04 09:35 -34.96546 143.51615 39057 ft 557 kts 86°
2026-05-04 09:37 -34.95975 143.89393 39057 ft 558 kts 86°
2026-05-04 09:38 -34.95813 143.98921 39057 ft 558 kts 86°
2026-05-04 09:38 -34.95646 144.08319 39054 ft 558 kts 86°
2026-05-04 09:39 -34.95469 144.17799 39053 ft 558 kts 86°
2026-05-04 09:39 -34.95286 144.27260 39057 ft 558 kts 86°
2026-05-04 09:40 -34.95095 144.36724 39056 ft 558 kts 86°
2026-05-04 09:40 -34.94897 144.46184 39056 ft 558 kts 86°
2026-05-04 09:42 -34.94073 144.82350 39058 ft 557 kts 85°
2026-05-04 09:43 -34.93326 145.11818 39054 ft 556 kts 85°
2026-05-04 09:43 -34.92763 145.31440 39057 ft 556 kts 84°
2026-05-04 09:44 -34.92480 145.40856 39058 ft 556 kts 84°
2026-05-04 09:46 -34.91293 145.78477 39062 ft 556 kts 84°
2026-05-04 09:46 -34.90977 145.87899 39064 ft 557 kts 84°
2026-05-04 09:47 -34.90653 145.97334 39066 ft 557 kts 84°
2026-05-04 09:49 -34.89287 146.35070 39069 ft 559 kts 83°
2026-05-04 09:51 -34.83820 147.62248 38085 ft 560 kts 82°
2026-05-04 09:51 -34.83360 147.71711 38088 ft 560 kts 82°
2026-05-04 09:52 -34.82892 147.81173 38092 ft 559 kts 82°
2026-05-04 09:52 -34.82418 147.90627 38091 ft 559 kts 82°
2026-05-04 09:53 -34.81936 148.00072 38089 ft 559 kts 82°
2026-05-04 09:53 -34.81447 148.09525 38096 ft 559 kts 82°
2026-05-04 09:54 -34.80954 148.18910 38101 ft 558 kts 82°
2026-05-04 09:54 -34.80452 148.28332 38098 ft 558 kts 82°
2026-05-04 09:55 -34.79942 148.37760 38099 ft 558 kts 82°
2026-05-04 09:55 -34.79426 148.47177 37883 ft 557 kts 82°
2026-05-04 09:55 -34.79167 148.51873 37595 ft 556 kts 82°
2026-05-04 09:56 -34.78905 148.56569 37300 ft 557 kts 82°
2026-05-04 09:56 -34.78641 148.61271 36933 ft 557 kts 81°
2026-05-04 09:56 -34.78375 148.65973 36554 ft 557 kts 81°
2026-05-04 09:56 -34.78107 148.70671 36175 ft 557 kts 81°
2026-05-04 09:57 -34.77836 148.75385 35806 ft 558 kts 81°
2026-05-04 09:57 -34.77564 148.80089 35448 ft 558 kts 81°
2026-05-04 09:57 -34.77291 148.84794 35090 ft 557 kts 81°
2026-05-04 09:57 -34.77017 148.89477 34735 ft 555 kts 81°
2026-05-04 09:58 -34.76747 148.94094 34391 ft 552 kts 80°
2026-05-04 09:58 -34.76474 148.98732 34037 ft 548 kts 80°
2026-05-04 09:58 -34.76199 149.03348 33633 ft 544 kts 80°
2026-05-04 10:00 -34.74287 149.34602 30376 ft 514 kts 79°
2026-05-04 10:00 -34.73660 149.38792 29911 ft 495 kts 65°
2026-05-04 10:02 -34.63454 149.63225 26751 ft 445 kts 53°
2026-05-04 10:04 -34.53526 149.85782 23673 ft 423 kts 53°
2026-05-04 10:04 -34.52146 149.88908 23140 ft 420 kts 53°
2026-05-04 10:04 -34.50773 149.92013 22681 ft 415 kts 53°
2026-05-04 10:04 -34.49414 149.95093 22220 ft 412 kts 54°
2026-05-04 10:05 -34.48069 149.98130 21757 ft 408 kts 54°
2026-05-04 10:05 -34.46731 150.01149 21296 ft 405 kts 54°
2026-05-04 10:05 -34.45417 150.04113 20819 ft 402 kts 54°
2026-05-04 10:05 -34.44100 150.07083 20358 ft 398 kts 54°
2026-05-04 10:06 -34.42794 150.10025 19896 ft 395 kts 55°
2026-05-04 10:06 -34.41498 150.12938 19447 ft 392 kts 55°
2026-05-04 10:06 -34.40208 150.15841 18997 ft 389 kts 55°
2026-05-04 10:08 -34.32651 150.32802 16092 ft 373 kts 55°
2026-05-04 10:08 -34.31421 150.35550 15641 ft 370 kts 56°
2026-05-04 10:08 -34.30203 150.38270 15202 ft 366 kts 56°
2026-05-04 10:08 -34.29001 150.40957 14764 ft 362 kts 56°
2026-05-04 10:09 -34.27807 150.43627 14340 ft 359 kts 56°
2026-05-04 10:09 -34.26628 150.46275 13912 ft 357 kts 56°
2026-05-04 10:09 -34.25447 150.48915 13458 ft 354 kts 56°
2026-05-04 10:09 -34.24279 150.51517 12979 ft 352 kts 56°
2026-05-04 10:10 -34.23115 150.54111 12526 ft 349 kts 56°
2026-05-04 10:10 -34.21962 150.56687 12094 ft 347 kts 56°
2026-05-04 10:10 -34.20817 150.59242 11669 ft 344 kts 56°
2026-05-04 10:10 -34.19693 150.61747 11246 ft 342 kts 57°
2026-05-04 10:11 -34.18563 150.64265 10833 ft 340 kts 57°
2026-05-04 10:11 -34.17441 150.66773 10432 ft 338 kts 57°
2026-05-04 10:11 -34.16326 150.69258 10026 ft 334 kts 57°
2026-05-04 10:11 -34.15223 150.71705 9552 ft 326 kts 56°
2026-05-04 10:12 -34.14185 150.74023 9225 ft 302 kts 56°
2026-05-04 10:12 -34.13205 150.76206 8843 ft 292 kts 56°
2026-05-04 10:12 -34.12227 150.78362 8454 ft 293 kts 56°
2026-05-04 10:12 -34.11256 150.80507 8081 ft 288 kts 56°
2026-05-04 10:13 -34.10299 150.82623 7710 ft 287 kts 56°
2026-05-04 10:13 -34.09350 150.84738 7349 ft 286 kts 56°
2026-05-04 10:13 -34.08404 150.86841 6972 ft 284 kts 56°
2026-05-04 10:13 -34.07464 150.88929 6690 ft 282 kts 56°
2026-05-04 10:14 -34.06527 150.91004 6447 ft 281 kts 56°
2026-05-04 10:14 -34.05595 150.93067 6191 ft 279 kts 56°
2026-05-04 10:16 -34.07744 151.07279 5576 ft 295 kts 144°
2026-05-04 10:16 -34.09652 151.08264 5096 ft 296 kts 168°
2026-05-04 10:16 -34.11612 151.08759 4904 ft 285 kts 170°
2026-05-04 10:16 -34.13524 151.09215 4455 ft 276 kts 169°
2026-05-04 10:17 -34.15383 151.09671 3930 ft 270 kts 169°
2026-05-04 10:17 -34.17210 151.10132 3423 ft 267 kts 169°
2026-05-04 10:19 -34.24894 151.17417 2996 ft 216 kts 83°
2026-05-04 10:19 -34.24688 151.19192 2991 ft 211 kts 62°
2026-05-04 10:19 -34.23835 151.20533 3001 ft 197 kts 31°
2026-05-04 10:19 -34.22682 151.21404 3002 ft 195 kts 24°
2026-05-04 10:20 -34.21476 151.22161 2995 ft 195 kts 22°
2026-05-04 10:20 -34.20266 151.22906 2996 ft 195 kts 23°
2026-05-04 10:20 -34.19036 151.23573 2978 ft 193 kts 11°
2026-05-04 10:20 -34.17716 151.23572 3000 ft 189 kts 351°
2026-05-04 10:21 -34.16423 151.23275 2995 ft 188 kts 348°
2026-05-04 10:21 -34.15172 151.22953 2994 ft 181 kts 347°
2026-05-04 10:21 -34.13988 151.22640 3006 ft 170 kts 348°
2026-05-04 10:21 -34.12845 151.22341 2992 ft 166 kts 347°
2026-05-04 10:22 -34.10706 151.21788 2853 ft 153 kts 348°
2026-05-04 10:22 -34.09688 151.21525 2635 ft 144 kts 348°
2026-05-04 10:22 -34.08755 151.21280 2445 ft 131 kts 349°
2026-05-04 10:23 -34.07892 151.21055 2280 ft 127 kts 348°
2026-05-04 10:23 -34.07031 151.20829 2110 ft 127 kts 349°
2026-05-04 10:25 -34.00971 151.19249 944 ft 128 kts 351°
2026-05-04 10:25 -34.00111 151.19028 776 ft 125 kts 348°
2026-05-04 10:25 -33.99246 151.18800 641 ft 128 kts 349°
2026-05-04 10:25 -33.98379 151.18574 464 ft 128 kts 349°
2026-05-04 10:26 -33.97503 151.18347 308 ft 129 kts 348°
2026-05-04 10:26 -33.96627 151.18116 165 ft 129 kts 349°
2026-05-04 10:26 -33.95755 151.17869 46 ft 124 kts 349°
2026-05-04 10:26 -33.95025 151.17701 34 ft 81 kts 348°
2026-05-04 10:27 -33.94730 151.17625 35 ft 25 kts 347°
2026-05-04 10:27 -33.94548 151.17554 36 ft 30 kts 335°
2026-05-04 10:27 -33.94393 151.17426 36 ft 21 kts 319°
2026-05-04 10:27 -33.94363 151.17395 36 ft 0 kts 319°
2026-05-04 10:28 -33.94354 151.17386 35 ft 5 kts 319°
2026-05-04 10:28 -33.94340 151.17371 36 ft 1 kts 318°
2026-05-04 10:28 -33.94312 151.17341 36 ft 10 kts 318°
2026-05-04 10:29 -33.94247 151.17297 36 ft 10 kts 346°
2026-05-04 10:29 -33.94182 151.17268 34 ft 7 kts 315°
2026-05-04 10:29 -33.94175 151.17238 34 ft 7 kts 281°
2026-05-04 10:29 -33.94185 151.17159 34 ft 13 kts 253°
2026-05-04 10:30 -33.94220 151.17014 35 ft 21 kts 254°
2026-05-04 10:30 -33.94263 151.16832 33 ft 24 kts 254°
2026-05-04 10:30 -33.94311 151.16626 32 ft 27 kts 255°
2026-05-04 10:30 -33.94356 151.16427 31 ft 5 kts 255°
2026-05-04 10:31 -33.94355 151.16398 31 ft 7 kts 285°
2026-05-04 10:31 -33.94328 151.16366 32 ft 7 kts 324°
2026-05-04 10:32 -33.94120 151.16321 36 ft 4 kts 42°
2026-05-04 10:33 -33.94095 151.16348 36 ft 6 kts 42°
2026-05-04 10:33 -33.94073 151.16372 36 ft 0 kts 42°
2026-05-04 10:33 -33.94071 151.16375 36 ft 2 kts 44°
2026-05-04 10:33 -33.94049 151.16400 36 ft 0 kts 43°
2026-05-04 10:34 -33.94072 151.16373 37 ft 0 kts 43°
2026-05-04 10:34 -33.94065 151.16381 36 ft 4 kts 43°
2026-05-04 10:34 -33.94063 151.16384 36 ft 0 kts 43°
2026-05-04 10:34 -33.94061 151.16386 36 ft 3 kts 43°
2026-05-04 10:35 -33.94058 151.16389 36 ft 0 kts 43°